GW3564 Weather Reports


time (UTC)temp
C
wind
direction
speed
KPH
gust
KPH
rain 1hr
cm
rain 24hr
cm
rain mn
cm
humidity
%
barometer
mb
20260504070108 3 186 0.0 0.0 0.00 0.00 0.00 89 1018.0
20260504050456 5 178 0.0 0.0 0.00 0.00 0.00 81 1017.9
20260504045953 5 178 0.0 0.0 0.00 0.00 0.00 80 1018.2
20260504045448 6 178 0.0 0.0 0.00 0.00 0.00 76 1018.0
20260504044945 6 182 0.0 0.0 0.00 0.00 0.00 77 1018.0
20260504044443 6 179 0.0 0.0 0.00 0.00 0.00 73 1018.0
20260504043940 6 186 0.0 0.0 0.00 0.00 0.00 76 1018.1
20260504043437 6 186 0.0 0.0 0.00 0.00 0.00 76 1017.9
20260504042934 6 186 0.0 0.0 0.00 0.00 0.00 74 1018.0
20260504042431 6 194 0.0 0.0 0.00 0.00 0.00 75 1017.9
20260504041927 6 186 0.0 0.0 0.00 0.00 0.00 73 1017.9
20260504041423 6 186 0.0 0.0 0.00 0.00 0.00 72 1017.6
20260504040919 6 186 0.0 0.0 0.00 0.00 0.00 73 1017.9
20260504040418 6 186 0.0 0.0 0.00 0.00 0.00 75 1018.0
20260504035913 6 188 0.0 0.0 0.00 0.00 0.00 71 1017.7
20260504035411 6 188 0.0 0.0 0.00 0.00 0.00 75 1017.8
20260504034907 6 175 0.0 0.0 0.00 0.00 0.00 72 1017.8
20260504034405 6 186 0.0 0.0 0.00 0.00 0.00 74 1017.9
20260504033902 6 186 0.0 0.0 0.00 0.00 0.00 70 1017.8
20260504033400 6 186 0.0 0.0 0.00 0.00 0.00 72 1017.8
20260504032856 6 186 0.0 0.0 0.00 0.00 0.00 67 1017.9
20260504032353 6 203 0.0 0.0 0.00 0.00 0.00 74 1017.7
20260504031850 6 186 0.0 0.0 0.00 0.00 0.00 73 1017.9
20260504031347 6 183 0.0 0.0 0.00 0.00 0.00 74 1017.9
20260504030843 6 178 0.0 0.0 0.00 0.00 0.00 70 1018.0
20260504030341 6 175 0.0 0.0 0.00 0.00 0.00 71 1017.8
20260504025837 6 170 0.0 0.0 0.00 0.00 0.00 70 1018.2
20260504025334 6 186 0.0 0.0 0.00 0.00 0.00 73 1018.0
20260504024830 7 183 0.0 0.0 0.00 0.00 0.00 71 1017.9
20260504024327 7 177 0.0 0.0 0.00 0.00 0.00 67 1017.9
20260504023824 7 186 0.0 0.0 0.00 0.00 0.00 66 1017.8
20260504023320 7 192 0.0 0.0 0.00 0.00 0.00 71 1017.8
20260504022816 7 175 0.0 0.0 0.00 0.00 0.00 70 1017.9
20260504022313 7 187 0.0 0.0 0.00 0.00 0.00 67 1018.0
20260504021809 7 183 0.0 0.0 0.00 0.00 0.00 69 1017.7
20260504021308 7 184 0.0 0.0 0.00 0.00 0.00 66 1017.9
20260504020804 7 186 0.0 0.0 0.00 0.00 0.00 66 1017.8
20260504020301 7 189 0.0 0.0 0.00 0.00 0.00 66 1017.8
20260504015757 7 182 0.0 0.0 0.00 0.00 0.00 67 1017.7
20260504015253 7 182 0.0 0.0 0.00 0.00 0.00 65 1017.4
20260504014749 7 183 0.0 0.0 0.00 0.00 0.00 67 1017.5
20260504014246 7 183 0.0 0.0 0.00 0.00 0.00 68 1017.3
20260504013744 8 182 0.0 0.0 0.00 0.00 0.00 61 1017.1
20260504013241 8 182 0.0 0.0 0.00 0.00 0.00 62 1017.5
20260504012737 8 186 0.0 0.0 0.00 0.00 0.00 64 1017.5
20260504012235 8 186 0.0 0.0 0.00 0.00 0.00 60 1017.3
20260504011732 8 183 0.0 0.0 0.00 0.00 0.00 61 1017.3
20260504011229 8 183 0.0 0.0 0.00 0.00 0.00 63 1017.3
20260504010725 8 182 0.0 0.0 0.00 0.00 0.00 62 1017.2
20260504010220 8 178 0.0 0.0 0.00 0.00 0.00 57 1017.0
20260504005717 9 188 0.0 0.0 0.00 0.00 0.00 57 1017.0
20260504005214 9 187 0.0 0.0 0.00 0.00 0.00 58 1016.9
20260504004712 9 187 0.0 0.0 0.00 0.00 0.00 60 1016.9
20260504004209 10 188 0.0 0.0 0.00 0.00 0.00 60 1016.9
20260504003706 10 191 0.0 0.0 0.00 0.00 0.00 57 1016.9
20260504003202 10 178 0.0 0.0 0.00 0.00 0.00 50 1016.7
20260504002659 11 186 0.0 0.0 0.00 0.00 0.00 53 1016.9
20260504002156 11 191 0.0 0.0 0.00 0.00 0.00 58 1016.9
20260504001654 11 177 0.0 0.0 0.00 0.00 0.00 51 1016.8
20260504001150 12 196 0.0 0.0 0.00 0.00 0.00 46 1016.9
20260504000647 12 182 0.0 0.0 0.00 0.00 0.00 46 1016.5
20260504000145 12 176 0.0 1.6 0.00 0.00 0.00 42 1016.4
20260503235643 12 190 0.0 0.0 0.00 0.00 0.00 46 1016.9
20260503235139 13 181 0.0 0.0 0.00 0.00 0.00 45 1016.7
20260503234637 13 181 0.0 0.0 0.00 0.00 0.00 44 1016.5
20260503234130 15 187 0.0 0.0 0.00 0.00 0.00 41 1016.5
20260503233627 16 190 0.0 0.0 0.00 0.00 0.00 34 1016.4
20260503233122 16 190 0.0 0.0 0.00 0.00 0.00 33 1016.3
20260503232619 16 192 0.0 0.0 0.00 0.00 0.00 32 1016.5
20260503232117 16 105 1.6 3.2 0.00 0.00 0.00 29 1016.3
20260503231614 16 225 1.6 3.2 0.00 0.00 0.00 27 1016.1
20260503231111 16 203 1.6 1.6 0.00 0.00 0.00 28 1016.4
20260503230608 16 219 3.2 4.8 0.00 0.00 0.00 27 1016.2
20260503230105 16 230 6.4 8.0 0.00 0.00 0.00 28 1016.5
20260503225603 16 209 1.6 1.6 0.00 0.00 0.00 26 1016.2
20260503225057 16 256 3.2 3.2 0.00 0.00 0.00 28 1016.1
20260503224555 16 249 3.2 3.2 0.00 0.00 0.00 28 1016.5
20260503224052 16 190 1.6 3.2 0.00 0.00 0.00 28 1016.4
20260503223550 17 198 0.0 1.6 0.00 0.00 0.00 28 1016.2
20260503223045 17 195 1.6 1.6 0.00 0.00 0.00 26 1016.3
20260503222544 16 199 1.6 1.6 0.00 0.00 0.00 31 1016.4
20260503222041 16 238 4.8 4.8 0.00 0.00 0.00 26 1016.5
20260503221539 17 238 1.6 3.2 0.00 0.00 0.00 28 1016.7
20260503221036 16 246 3.2 3.2 0.00 0.00 0.00 28 1016.5
20260503220532 16 202 1.6 1.6 0.00 0.00 0.00 26 1016.4
20260503220029 16 238 3.2 3.2 0.00 0.00 0.00 28 1016.7
20260503215527 16 187 1.6 3.2 0.00 0.00 0.00 27 1016.8
20260503215024 16 205 1.6 1.6 0.00 0.00 0.00 30 1016.5
20260503214522 16 187 0.0 0.0 0.00 0.00 0.00 30 1016.7
20260503214018 16 228 3.2 3.2 0.00 0.00 0.00 29 1016.8
20260503213516 16 213 1.6 3.2 0.00 0.00 0.00 31 1016.8
20260503213013 16 86 1.6 3.2 0.00 0.00 0.00 33 1016.9
20260503212510 15 182 0.0 1.6 0.00 0.00 0.00 34 1016.8
20260503212008 15 260 1.6 1.6 0.00 0.00 0.00 32 1016.9
20260503211505 15 302 3.2 3.2 0.00 0.00 0.00 31 1017.0
20260503211000 15 216 1.6 1.6 0.00 0.00 0.00 31 1016.9
20260503210457 15 219 1.6 3.2 0.00 0.00 0.00 30 1017.0
20260503205952 16 245 3.2 3.2 0.00 0.00 0.00 31 1017.3
20260503205449 15 242 3.2 3.2 0.00 0.00 0.00 30 1017.1
20260503204945 16 268 4.8 4.8 0.00 0.00 0.00 32 1017.2
20260503204443 16 205 1.6 3.2 0.00 0.00 0.00 32 1016.9
20260503203939 15 273 3.2 3.2 0.00 0.00 0.00 30 1017.2
20260503203437 15 215 1.6 3.2 0.00 0.00 0.00 33 1017.4
20260503202933 15 212 1.6 1.6 0.00 0.00 0.00 32 1017.5
20260503202432 15 254 6.4 9.7 0.00 0.00 0.00 31 1017.4
20260503201930 15 50 4.8 4.8 0.00 0.00 0.00 33 1017.6
20260503201427 15 336 6.4 11.3 0.00 0.00 0.00 34 1017.6
20260503200924 15 245 4.8 9.7 0.00 0.00 0.00 32 1017.6
20260503200420 15 239 3.2 3.2 0.00 0.00 0.00 34 1017.5
20260503195917 15 228 4.8 4.8 0.00 0.00 0.00 30 1017.7
20260503195415 15 216 6.4 9.7 0.00 0.00 0.00 32 1017.6
20260503194911 15 309 4.8 8.0 0.00 0.00 0.00 33 1017.8
20260503194408 15 196 3.2 4.8 0.00 0.00 0.00 33 1018.0
20260503193903 15 314 8.0 11.3 0.00 0.00 0.00 32 1017.9
20260503193359 15 274 8.0 11.3 0.00 0.00 0.00 32 1018.0
20260503192855 14 186 3.2 3.2 0.00 0.00 0.00 31 1018.1
20260503192350 14 197 3.2 3.2 0.00 0.00 0.00 31 1018.2
20260503191847 14 274 4.8 4.8 0.00 0.00 0.00 32 1018.4
20260503191345 15 220 3.2 3.2 0.00 0.00 0.00 33 1018.6
20260503190841 14 244 3.2 3.2 0.00 0.00 0.00 33 1018.4
20260503190338 13 180 1.6 3.2 0.00 0.00 0.00 35 1018.6
20260503185835 14 261 6.4 8.0 0.00 0.00 0.00 32 1018.8
20260503185331 14 245 4.8 8.0 0.00 0.00 0.00 34 1018.8
20260503184826 14 139 0.0 1.6 0.00 0.00 0.00 36 1018.6
20260503184322 13 241 1.6 3.2 0.00 0.00 0.00 35 1018.8
20260503183818 13 299 8.0 9.7 0.00 0.00 0.00 38 1018.9
20260503183315 13 204 3.2 4.8 0.00 0.00 0.00 35 1018.8
20260503182812 13 262 6.4 8.0 0.00 0.00 0.00 35 1019.1
20260503182312 13 89 3.2 3.2 0.00 0.00 0.00 36 1019.0
20260503181808 14 224 8.0 9.7 0.00 0.00 0.00 34 1019.4
20260503181306 13 188 1.6 1.6 0.00 0.00 0.00 35 1019.4
20260503180802 13 278 4.8 8.0 0.00 0.00 0.00 35 1019.4
20260503180300 13 263 3.2 4.8 0.00 0.00 0.00 34 1019.3
20260503175755 13 239 3.2 3.2 0.00 0.00 0.00 35 1019.4
20260503175254 13 272 3.2 4.8 0.00 0.00 0.00 37 1019.4
20260503174754 12 225 3.2 3.2 0.00 0.00 0.00 36 1019.6
20260503174253 12 266 8.0 14.5 0.00 0.00 0.00 38 1019.8
20260503173748 12 254 4.8 4.8 0.00 0.00 0.00 39 1019.4
20260503173244 12 290 6.4 8.0 0.00 0.00 0.00 41 1019.7
20260503172741 13 319 4.8 8.0 0.00 0.00 0.00 39 1019.4
20260503172238 12 227 4.8 4.8 0.00 0.00 0.00 38 1019.8
20260503171735 12 211 1.6 1.6 0.00 0.00 0.00 39 1019.8
20260503171232 12 269 1.6 1.6 0.00 0.00 0.00 40 1019.8
20260503170729 12 257 4.8 4.8 0.00 0.00 0.00 36 1019.9
20260503170226 11 247 3.2 4.8 0.00 0.00 0.00 36 1020.2
20260503160147 10 236 6.4 8.0 0.00 0.00 0.00 44 1020.5
20260503150618 9 57 4.8 4.8 0.00 0.00 0.00 48 1021.0
20260503150114 8 56 4.8 8.0 0.00 0.00 0.00 49 1021.3
20260503131007 6 229 4.8 4.8 0.00 0.00 0.00 62 1021.0
20260503130505 5 266 3.2 3.2 0.00 0.00 0.00 66 1020.9
20260503110400 2 226 3.2 4.8 0.00 0.00 0.00 76 1019.4
20260503090252 3 196 1.6 1.6 0.00 0.00 0.00 74 1017.8
20260503081225 3 224 0.0 1.6 0.00 0.00 0.00 75 1017.4
20260503080720 3 197 1.6 1.6 0.00 0.00 0.00 76 1017.5
20260503080218 2 249 1.6 1.6 0.00 0.00 0.00 76 1017.5
20260503072654 2 212 0.0 0.0 0.00 0.00 0.00 79 1017.2